Precipitable_Water
1.28 1.28 1.28 1.31 1.30 1.27 1.26 1.27 1.27 1.25 1.25 1.26 1.24 1.25 1.25 1.23 1.21 1.17 1.15 1.13 1.09 1.04 0.97 0.88 0.80 0.74 0.69 0.66 0.64 0.63 0.60 0.58 0.58 0.59 0.57 0.54 0.51 0.49 0.46 0.45 0.43 0.42
1.25 1.29 1.32 1.34 1.31 1.28 1.29 1.30 1.28 1.26 1.26 1.27 1.27 1.26 1.24 1.21 1.20 1.15 1.12 1.10 1.07 1.00 0.91 0.83 0.77 0.71 0.67 0.63 0.61 0.58 0.57 0.58 0.57 0.59 0.54 0.51 0.49 0.48 0.45 0.44 0.42 0.43
1.26 1.29 1.31 1.29 1.27 1.26 1.28 1.30 1.29 1.28 1.28 1.28 1.27 1.24 1.21 1.19 1.14 1.12 1.10 1.07 1.01 0.91 0.82 0.78 0.74 0.69 0.64 0.61 0.59 0.58 0.58 0.57 0.55 0.55 0.52 0.49 0.48 0.46 0.45 0.44 0.42 0.41
1.27 1.31 1.32 1.31 1.30 1.29 1.31 1.28 1.28 1.28 1.29 1.25 1.23 1.23 1.20 1.16 1.11 1.08 1.07 1.04 0.97 0.86 0.79 0.74 0.70 0.66 0.64 0.63 0.63 0.61 0.59 0.56 0.55 0.53 0.50 0.49 0.47 0.45 0.44 0.44 0.44 0.44
1.27 1.30 1.33 1.32 1.33 1.34 1.31 1.28 1.26 1.27 1.25 1.24 1.24 1.21 1.17 1.12 1.08 1.06 1.04 1.01 0.94 0.81 0.75 0.71 0.69 0.67 0.67 0.66 0.63 0.59 0.57 0.55 0.54 0.51 0.48 0.46 0.46 0.46 0.46 0.45 0.44 0.43
1.29 1.31 1.32 1.32 1.34 1.32 1.29 1.26 1.26 1.25 1.24 1.23 1.20 1.19 1.14 1.10 1.07 1.05 1.03 0.99 0.91 0.79 0.74 0.72 0.70 0.70 0.69 0.65 0.61 0.58 0.57 0.54 0.54 0.51 0.48 0.46 0.47 0.48 0.49 0.49 0.47 0.46
1.26 1.29 1.29 1.33 1.34 1.33 1.28 1.25 1.24 1.24 1.24 1.24 1.21 1.15 1.12 1.08 1.05 1.03 1.02 0.97 0.89 0.81 0.74 0.72 0.72 0.71 0.68 0.64 0.61 0.59 0.58 0.55 0.53 0.51 0.48 0.48 0.49 0.50 0.52 0.50 0.48 0.45
1.27 1.29 1.30 1.33 1.33 1.31 1.27 1.25 1.23 1.23 1.24 1.23 1.16 1.13 1.11 1.07 1.05 1.03 1.00 0.95 0.89 0.80 0.74 0.72 0.72 0.70 0.67 0.65 0.62 0.59 0.57 0.56 0.52 0.50 0.49 0.50 0.51 0.50 0.51 0.49 0.46 0.45
1.29 1.27 1.28 1.30 1.31 1.29 1.26 1.24 1.24 1.24 1.25 1.19 1.14 1.11 1.09 1.08 1.07 1.04 1.00 0.96 0.89 0.79 0.74 0.72 0.71 0.69 0.68 0.66 0.62 0.59 0.58 0.57 0.54 0.51 0.51 0.51 0.51 0.51 0.50 0.49 0.46 0.45
1.26 1.26 1.26 1.29 1.29 1.28 1.24 1.24 1.25 1.25 1.24 1.18 1.14 1.11 1.08 1.10 1.10 1.07 1.02 0.94 0.87 0.79 0.73 0.71 0.71 0.71 0.71 0.68 0.64 0.62 0.61 0.59 0.57 0.56 0.55 0.55 0.54 0.52 0.51 0.50 0.47 0.45
1.24 1.25 1.25 1.28 1.28 1.27 1.24 1.25 1.26 1.24 1.22 1.17 1.14 1.11 1.11 1.11 1.10 1.08 1.01 0.93 0.86 0.79 0.73 0.70 0.70 0.72 0.72 0.70 0.67 0.66 0.66 0.64 0.62 0.61 0.60 0.58 0.55 0.53 0.53 0.52 0.48 0.46
1.22 1.23 1.26 1.28 1.28 1.27 1.25 1.25 1.25 1.23 1.20 1.17 1.14 1.11 1.11 1.11 1.09 1.06 0.99 0.93 0.86 0.80 0.74 0.71 0.70 0.73 0.73 0.70 0.69 0.69 0.68 0.67 0.66 0.65 0.62 0.58 0.56 0.56 0.55 0.53 0.50 0.47
1.21 1.23 1.27 1.28 1.28 1.28 1.28 1.27 1.24 1.22 1.19 1.16 1.15 1.12 1.10 1.07 1.07 1.04 1.00 0.94 0.87 0.80 0.75 0.71 0.70 0.73 0.72 0.70 0.68 0.67 0.67 0.67 0.67 0.65 0.62 0.60 0.59 0.57 0.53 0.51 0.49 0.46
1.23 1.27 1.29 1.30 1.31 1.31 1.30 1.29 1.25 1.20 1.18 1.18 1.15 1.11 1.09 1.07 1.07 1.04 0.98 0.93 0.87 0.80 0.75 0.73 0.72 0.70 0.67 0.64 0.65 0.65 0.69 0.70 0.69 0.65 0.61 0.58 0.55 0.52 0.49 0.47 0.45 0.43
1.25 1.28 1.32 1.32 1.31 1.30 1.30 1.28 1.24 1.20 1.18 1.16 1.14 1.11 1.08 1.07 1.06 1.03 0.97 0.91 0.86 0.80 0.77 0.76 0.71 0.67 0.65 0.66 0.67 0.75 0.78 0.72 0.65 0.62 0.59 0.55 0.52 0.49 0.46 0.45 0.42 0.40
1.25 1.27 1.30 1.33 1.31 1.29 1.30 1.28 1.23 1.19 1.17 1.15 1.11 1.09 1.06 1.05 1.04 1.02 0.98 0.90 0.86 0.85 0.83 0.80 0.76 0.73 0.72 0.71 0.73 0.82 0.78 0.69 0.62 0.62 0.59 0.56 0.50 0.46 0.45 0.43 0.40 0.38
1.25 1.26 1.30 1.30 1.30 1.31 1.32 1.28 1.22 1.18 1.15 1.13 1.09 1.07 1.04 1.03 1.02 1.00 0.98 0.93 0.90 0.88 0.86 0.83 0.80 0.76 0.72 0.73 0.83 0.83 0.74 0.66 0.63 0.61 0.59 0.54 0.49 0.45 0.43 0.41 0.39 0.38
1.25 1.28 1.29 1.29 1.30 1.30 1.31 1.28 1.22 1.15 1.12 1.10 1.08 1.06 1.05 1.04 1.00 0.99 0.98 0.95 0.93 0.91 0.86 0.83 0.80 0.75 0.73 0.85 0.85 0.75 0.69 0.65 0.64 0.61 0.57 0.52 0.48 0.45 0.43 0.41 0.39 0.39
1.27 1.29 1.30 1.29 1.30 1.31 1.32 1.27 1.18 1.13 1.10 1.08 1.06 1.07 1.07 1.03 1.02 1.01 0.99 0.97 0.94 0.89 0.85 0.83 0.82 0.83 0.82 0.84 0.77 0.69 0.67 0.66 0.64 0.62 0.56 0.50 0.48 0.46 0.43 0.41 0.40 0.41
1.29 1.31 1.31 1.31 1.32 1.32 1.30 1.24 1.16 1.11 1.10 1.10 1.09 1.08 1.06 1.04 1.03 1.02 1.01 0.98 0.95 0.91 0.86 0.83 0.82 0.84 0.85 0.80 0.71 0.67 0.68 0.67 0.65 0.61 0.55 0.51 0.49 0.48 0.44 0.44 0.45 0.44
1.30 1.31 1.31 1.29 1.31 1.31 1.28 1.21 1.15 1.11 1.09 1.09 1.09 1.08 1.06 1.04 1.03 1.02 1.01 0.98 0.95 0.92 0.87 0.85 0.84 0.87 0.87 0.81 0.74 0.69 0.67 0.66 0.64 0.61 0.55 0.55 0.52 0.49 0.49 0.50 0.51 0.49
1.27 1.28 1.29 1.28 1.29 1.28 1.24 1.19 1.14 1.10 1.08 1.09 1.10 1.09 1.08 1.07 1.04 1.03 1.00 0.97 0.95 0.91 0.85 0.84 0.85 0.87 0.84 0.77 0.73 0.69 0.66 0.65 0.65 0.60 0.56 0.57 0.54 0.52 0.53 0.54 0.53 0.51
1.24 1.26 1.27 1.27 1.27 1.26 1.22 1.17 1.12 1.09 1.09 1.12 1.10 1.09 1.07 1.05 1.04 1.01 0.99 0.96 0.94 0.91 0.85 0.83 0.82 0.83 0.81 0.76 0.73 0.71 0.67 0.66 0.65 0.62 0.59 0.58 0.56 0.56 0.55 0.54 0.53 0.51
1.24 1.26 1.26 1.26 1.26 1.25 1.23 1.19 1.15 1.13 1.12 1.14 1.12 1.09 1.07 1.06 1.05 1.01 0.97 0.95 0.92 0.89 0.86 0.82 0.82 0.88 0.86 0.79 0.75 0.71 0.70 0.67 0.66 0.63 0.59 0.57 0.58 0.58 0.55 0.53 0.52 0.51
1.26 1.27 1.27 1.27 1.26 1.31 1.25 1.19 1.15 1.13 1.15 1.14 1.12 1.09 1.07 1.06 1.04 0.99 0.96 0.94 0.92 0.88 0.87 0.86 0.83 0.83 0.81 0.79 0.77 0.75 0.74 0.70 0.66 0.62 0.59 0.59 0.60 0.55 0.52 0.50 0.50 0.51
1.27 1.27 1.28 1.27 1.28 1.27 1.24 1.20 1.18 1.16 1.14 1.12 1.10 1.07 1.04 1.03 1.02 0.97 0.93 0.90 0.90 0.87 0.85 0.83 0.80 0.79 0.80 0.82 0.83 0.81 0.76 0.69 0.62 0.57 0.57 0.60 0.57 0.51 0.46 0.45 0.45 0.48
Wind_Speed
18 18 18 18 17 16 16 15 15 15 15 14 14 14 14 13 12 12 12 12 12 12 12 11 11 10 10 10 11 11 11 11 11 11 11 11 12 12 12 13 13 14
19 18 18 18 17 16 16 16 16 15 15 14 14 14 13 13 12 12 12 12 12 12 12 11 11 10 10 11 11 11 11 11 11 11 11 11 12 12 13 13 13 14
19 18 18 18 17 16 16 16 15 15 15 14 14 13 13 12 12 12 12 12 12 12 11 11 11 11 10 10 11 11 11 11 11 12 12 12 12 13 13 13 14 15
19 19 18 18 17 17 16 16 15 15 15 14 14 13 13 12 12 11 12 12 12 11 11 11 11 11 10 10 11 11 11 11 12 12 12 12 13 13 13 14 14 15
19 18 18 18 17 17 16 16 15 15 15 14 13 13 13 13 12 12 12 12 12 12 11 11 11 11 10 11 11 11 12 12 12 12 12 12 13 13 14 14 15 15
19 18 18 17 17 17 16 15 15 15 15 14 13 13 13 13 13 13 13 13 12 12 12 12 11 11 11 11 12 12 12 12 12 12 12 13 13 14 14 15 15 15
19 19 18 18 17 17 16 15 15 15 15 14 13 13 13 13 13 13 13 13 13 12 12 12 12 12 12 12 12 12 13 13 13 13 13 13 14 14 15 15 15 15
20 19 18 18 18 17 16 16 15 15 15 14 14 13 13 13 13 14 14 14 13 13 13 13 12 12 12 13 13 13 13 14 14 14 14 14 14 14 15 15 16 17
20 19 19 18 18 17 17 16 15 15 15 15 14 13 13 13 13 14 14 14 14 14 14 13 13 13 13 14 14 14 14 15 15 15 14 14 15 15 16 16 17 17
20 20 19 19 18 18 17 16 16 16 16 15 14 14 14 13 13 14 14 14 14 14 14 14 14 14 14 14 15 15 15 15 15 15 15 15 15 16 16 16 16 17
21 20 20 20 19 18 18 17 17 16 16 16 15 15 14 14 13 14 14 14 14 14 14 15 15 15 15 15 15 15 15 16 15 15 15 16 16 16 16 16 17 17
21 21 20 20 20 19 18 18 17 16 16 16 15 15 14 14 14 14 14 14 14 14 15 15 15 15 15 15 15 16 16 16 16 16 16 17 17 17 16 16 17 17
21 21 21 21 20 19 19 18 17 16 16 16 15 15 15 14 14 14 15 15 15 15 15 15 15 15 15 16 16 17 17 16 16 16 17 17 16 16 16 15 16 17
22 21 21 21 20 20 20 19 18 17 16 16 16 15 15 15 15 15 15 15 15 15 15 15 15 16 16 16 17 17 16 16 16 16 16 15 16 15 15 15 16 17
22 22 22 21 21 21 20 19 18 17 17 16 16 16 16 15 15 15 15 15 15 15 15 15 16 16 17 17 17 16 16 16 16 16 15 15 15 15 15 16 16 17
22 22 22 22 22 21 20 20 19 18 17 17 16 16 16 16 15 15 15 15 15 15 16 16 16 17 17 16 16 16 16 16 15 15 15 15 16 16 15 16 16 16
22 22 23 22 22 22 21 20 20 19 18 17 17 17 16 16 16 16 16 16 16 16 16 16 17 17 16 16 16 16 16 16 16 15 15 16 16 16 16 16 16 16
23 23 23 23 23 22 22 21 20 19 18 17 17 17 17 16 16 16 16 16 16 17 17 17 17 16 16 16 17 16 16 16 16 16 16 16 16 16 16 16 16 16
24 23 23 23 23 23 22 22 20 19 18 18 18 18 17 17 17 17 17 17 17 17 17 17 17 17 17 17 17 17 17 17 16 16 16 16 16 15 15 15 16 15
24 24 23 23 23 23 22 22 21 19 18 18 18 18 18 18 18 18 18 18 18 18 18 17 17 17 18 17 17 17 17 16 16 16 16 15 15 15 15 15 15 15
24 23 23 23 23 23 23 22 21 20 19 19 19 19 19 18 19 19 19 19 19 18 18 18 18 18 18 17 17 18 17 16 16 16 15 15 16 15 15 15 15 16
24 23 23 23 23 24 23 22 22 20 20 20 20 19 19 19 19 20 20 19 19 19 19 19 19 19 19 18 19 18 18 17 16 15 15 15 16 15 15 15 15 16
23 23 23 23 24 24 24 23 22 21 20 20 20 20 20 20 20 20 20 20 20 20 19 19 19 20 20 20 19 19 18 17 16 15 15 16 16 15 15 15 16 17
23 23 23 24 24 24 24 23 22 21 21 21 21 21 21 21 21 21 20 20 20 20 20 20 20 21 20 20 20 20 19 18 16 16 16 16 16 16 16 16 17 17
23 23 23 24 24 24 23 23 22 22 22 22 22 22 22 21 21 20 20 20 21 21 21 21 21 21 21 21 21 21 20 19 18 17 17 17 16 17 17 17 17 17
23 23 24 24 24 24 23 23 22 22 22 22 22 22 21 20 20 20 20 21 22 22 22 21 21 21 22 22 21 21 20 19 19 19 18 18 18 18 18 17 17 18
Wind_Direction
239 239 240 240 240 240 243 247 249 248 248 249 250 251 251 251 251 250 251 250 252 256 256 256 254 253 255 256 259 263 266 270 272 275 278 282 286 289 292 295 297 300
237 238 239 239 238 240 243 247 248 247 247 248 249 250 250 252 251 250 251 252 254 257 255 253 251 252 254 256 260 263 267 269 272 275 278 283 286 289 293 296 298 300
235 236 237 237 237 239 243 247 247 246 246 247 248 249 250 251 250 250 250 252 257 257 253 249 249 250 253 256 260 263 266 270 273 276 280 283 286 289 293 296 298 300
234 236 237 237 237 239 243 246 246 245 245 245 246 247 247 248 249 250 251 254 257 254 249 247 247 249 253 256 260 264 268 272 275 277 281 284 287 291 294 297 299 301
234 235 237 238 238 239 242 244 244 243 243 243 244 245 245 247 250 252 254 256 255 250 247 246 247 250 254 258 262 266 269 273 275 278 282 285 289 292 295 297 299 301
233 234 236 237 237 238 240 242 243 242 242 241 241 243 245 248 251 253 254 255 251 246 245 246 248 252 257 261 265 267 270 273 276 279 283 286 290 293 295 297 299 301
232 233 234 235 236 236 238 241 242 242 241 240 240 243 246 250 252 253 253 252 248 244 245 246 249 254 259 263 266 268 272 275 277 280 283 287 290 293 295 296 297 300
231 232 234 234 233 234 237 239 241 241 240 239 240 243 247 251 253 253 252 250 246 245 245 247 251 256 261 264 267 270 274 277 279 281 283 287 290 292 294 294 295 298
231 232 233 232 231 233 235 238 240 240 240 241 241 243 247 252 253 252 251 248 246 246 246 249 253 258 262 266 269 272 276 279 280 282 284 286 288 290 292 294 295 296
230 232 232 231 231 232 234 236 238 240 241 242 242 244 248 252 252 251 249 247 246 247 248 251 254 258 263 267 271 275 278 280 282 283 284 284 286 289 292 294 295 295
229 230 231 230 230 232 234 236 238 240 241 241 242 244 248 251 251 249 248 247 248 249 250 252 256 260 264 268 273 277 280 281 282 283 284 285 287 290 292 293 294 294
229 229 229 230 230 231 233 235 238 240 240 240 243 245 247 250 250 249 248 248 250 252 253 255 258 261 266 270 275 278 280 281 282 284 286 287 289 290 292 293 294 294
228 229 229 230 230 230 232 235 238 239 238 240 243 245 246 248 249 249 249 250 252 253 255 257 260 263 267 271 276 278 279 279 281 284 287 288 290 291 293 294 295 296
228 229 229 230 230 229 232 235 237 238 238 241 244 245 247 248 249 250 250 251 254 256 257 260 262 265 269 273 276 277 277 278 280 283 286 289 291 292 293 295 296 297
228 228 228 229 228 229 232 235 236 237 238 241 243 244 246 248 249 251 251 252 254 257 260 262 265 268 272 275 276 276 275 277 279 282 286 289 291 291 293 294 296 297
226 226 227 228 228 230 233 234 236 237 238 240 242 243 244 246 249 251 252 253 255 258 261 263 266 270 273 275 276 275 274 275 278 282 285 287 288 289 291 293 294 297
225 226 227 228 229 231 233 234 235 236 237 238 240 242 243 246 249 251 253 255 256 258 261 264 267 270 273 274 274 274 274 275 278 282 284 285 286 288 290 291 293 295
225 226 227 228 229 231 232 233 234 235 236 237 240 242 244 247 250 252 254 256 257 259 262 265 268 270 273 275 274 272 273 275 278 281 282 283 285 287 288 290 292 294
223 225 227 228 230 231 232 232 232 233 235 237 240 242 245 248 251 253 256 257 257 259 262 264 267 270 274 275 273 271 271 274 277 279 280 282 284 285 288 290 291 292
222 224 226 229 230 230 230 231 231 233 235 239 241 243 246 250 252 254 256 257 257 259 262 265 268 273 274 273 271 270 271 272 275 277 278 281 283 285 288 289 288 290
222 224 227 229 229 229 229 230 231 233 237 240 242 245 248 251 253 255 256 257 257 260 263 266 271 274 274 272 271 270 270 272 274 275 276 281 284 286 288 287 287 290
223 224 226 228 228 228 228 230 232 234 237 240 244 248 251 253 255 256 257 257 259 261 264 267 271 274 274 272 271 270 269 270 272 272 274 281 285 286 286 286 287 291
223 224 225 226 227 228 229 231 233 235 238 242 245 249 252 253 255 257 258 259 260 262 264 267 270 274 273 270 270 269 267 266 267 269 274 281 284 283 283 285 287 290
224 224 225 227 227 228 230 232 235 237 240 243 246 249 252 254 255 257 259 260 261 263 265 267 271 275 273 270 269 267 263 261 262 268 276 281 281 280 281 285 288 288
225 225 227 229 228 229 231 233 235 238 241 244 247 250 252 254 256 257 259 260 262 264 266 268 272 275 273 271 269 264 259 257 259 267 275 278 277 278 282 286 287 287
226 227 229 231 230 230 231 233 235 238 241 244 248 250 252 254 256 258 260 262 264 266 268 270 272 273 273 271 268 261 254 254 258 266 273 275 276 279 283 285 285 286